Location: Newark
(48.8833°N, 0.9236°W)
Time: 04:47:40
(UTC+00:00)

ISS - Visible Passes

Search period start: 18 October 2019 00:00
Search period end: 28 October 2019 00:00
Orbit: 411 x 421 km, 51.6° (Epoch: 17 October)

Date Brightness Start Highest point End Pass type
(mag) Time Alt. Az. Time Alt. Az. Time Alt. Az.
23 Oct -0.1 05:38:47 10° SE 05:38:48 10° SE 05:38:50 10° SE visible
25 Oct -1.4 05:35:17 10° SSW 05:37:58 22° SE 05:40:40 10° E visible
26 Oct -0.9 04:47:36 10° S 04:49:35 15° SE 04:51:34 10° E visible
27 Oct -2.8 05:34:03 10° SW 05:37:18 46° SSE 05:40:33 10° ENE visible
